星链-6139 (STARLINK-6139 )

导读 | 豆包AI

STARLINK-6139是美国SpaceX公司星链星座中的一颗卫星,于2023年6月23日发射升空,归属星链项目,该项目旨在构建全球卫星互联网星座系统,为全球偏远地区、海洋等网络覆盖薄弱区域提供高速宽带互联网接入服务,推进全球网络覆盖一体化建设。

基本信息
目录编号:
57109
目录名称:
STARLINK-6139
国际标识:
2023-090J
轨道中心:
EARTH
卫星名称:
星链-6139
卫星全名:
星链-6139 (STARLINK-6139 )
卫星状态:
在轨 (已飞行996 天)
发射日期:
2023-06-23 UTC
国别 :
美国 (US)
星等 :
--
轨道信息
数据来源 国际轨道数据 AOE轨道数据
星历时间 2026-03-15T19:37:45+0800
10小时前
查看轨道信息
2026-03-14T10:00:00+0800
1天前
查看轨道信息
半长轴 6937.214km 6937.217km
偏心率 0.0001144 0.0001617
轨道倾角 43.002° 43.002°
近地点辐角 260.005° 263.320°
升交点赤经 243.287° 250.905°
平近点角 100.066° 68.659°
近地点 558.283km 557.958km
远地点 559.871km 560.202km
周期 95.838分钟 95.838分钟
每日圈数 15.025369 15.02536
详细信息
固有亮度:
5
最大亮度:
2.4
卫星平台:
Starlink v1.5
覆盖范围:
全球
运营商:
太空探索技术公司
运营商所在国:
美国
制造商(研发单位):
太空探索技术公司
制造商所在国:
美国
使用方式:
暂无
卫星简介
星链(Starlink)计划是由太空探索技术公司(SpaceX)提出的一个巨型低轨卫星互联网星座项目,计划在2019年至2024年间在太空搭建由约1.2万颗卫星组成的“星链”网络,其中1584颗将部署在地球上空550千米处的近地轨道,并从2020年开始工作。该卫星仍在工作。
2D轨道图
3D轨道图
轨道高度分析图
轨道倾角分析图
轨道综合分析图
查看轨道综合分析图